Location: Newark
(60.5925°N, 45.5911°E)
Time: 13:16:42
(UTC+00:00)

Envisat - Pass Details

Date: 22 September 2019
Orbit: 764 x 766 km, 98.1° (Epoch: 17 October)

Event Time Altitude Azimuth Distance (km) Brightness Sun altitude
Rises 16:33:08 0° 216° (SW) 3,229 6.4 -12.1°
Reaches altitude 10° 16:36:14 10° 236° (WSW) 2,308 5.9 -12.4°
Maximum altitude 16:39:32 17° 277° (W) 1,863 6.1 -12.8°
Drops below altitude 10° 16:42:52 10° 318° (NW) 2,318 6.6 -13.2°
Sets 16:46:00 0° 338° (NNW) 3,249 7.0 -13.5°
